Retour au catalogue

ONEWEB-0327

ActifCommunicationsPO
NORAD 49196·PAYLOAD·🇬🇧 United Kingdom

Lancé Sep 14, 2021 depuis Baikonur Cosmodrome

Loading…

Prochains Passages (prochaines 24 heures)

TLE

FraisSource: CelesTrak SupGP

Époque: Sep 14, 2026, 20:21 UTC

1 49196C 21083L   26257.84845324 -.00001431  00000+0 -36346-2 0  2574
2 49196  87.9165 317.6428 0002328 102.6873 299.1512 13.18689301    10

Suivez ONEWEB-0327 en temps réel avec AllMySat

Download on the App Store